{"data":{"norad_id":47788,"epoch":"2026-05-25T04:12:51.370848Z","epoch_age_seconds":55790,"freshness":"FRESH","line1":"1 47788U 21018B   26145.17559457  .00042101  00000+0  11353-2 0  9999","line2":"2 47788  53.1551 222.4963 0003826 336.9439  23.1393 15.37410368288805","mean_motion":15.37410368,"eccentricity":0.0003826,"inclination_deg":53.1551,"raan_deg":222.4963,"arg_perigee_deg":336.9439,"mean_anomaly_deg":23.1393,"bstar":0.0011353,"rev_number":28880,"period_min":93.663996937479,"perigee_km":451.15650734144,"apogee_km":456.38428288018,"semimajor_km":6831.9073951108,"source":"CELESTRAK","updated_at":"2026-05-25T13:38:16.597481Z"}}